Home   Weather   St. Louis   Past weeks
Flag for USA

Past Weather in St. Louis, Missouri, USA — Yesterday and Last 2 Weeks

Now
28 °F

Light snow. Ice fog.


Feels Like: 20 °F
Forecast: 28 / 34 °F
Wind: 8 mph from Northwest

Location: Lambert-St. Louis International Airport

Current Time: Nov 15, 2018 at 8:50:55 am

Latest Report: Nov 15, 2018 at 8:10 am


Visibility: 1 mi

Pressure: 30.14 "Hg

Humidity: 96%

Dew Point: 27 °F

Location of St. LouisLocation

Past Weather in St. Louis — Graph

°F

St. Louis Temperature Yesterday

Maximum temperature yesterday: 32 °F (at 1:51 pm)
Minimum temperature yesterday: 18 °F (at 4:51 am)
Average temperature yesterday: 27 °F

High & Low Weather Summary for the Past Weeks

 TemperatureHumidityPressure
High60 °F (Nov 6, 1:51 pm)100% (Nov 1, 8:51 pm)30.62 "Hg (Nov 1, 8:51 pm)
Low18 °F (Nov 14, 4:51 am)35% (Nov 10, 1:51 pm)29.65 "Hg (Nov 5, 8:05 pm)
Average40 °F80%30.14 "Hg
* Reported Oct 31 8:16 am — Nov 15 7:19 am, St. Louis. Weather by CustomWeather, © 2018

Note: Actual official high and low records may vary slightly from our data, if they occured in-between our weather recording intervals... More about our weather records

Advertising

St. Louis Weather History for the Previous 24 Hours

Scroll right to see more
 ConditionsComfort  
Time TempWeatherWind HumidityBarometerVisibility
7:19 am
Thu, Nov 15
28 °FLight snow. Ice fog.7 mph96%30.13 "Hg2 mi
6:51 am28 °FLight snow. Ice fog.8 mph96%30.16 "Hg1 mi
5:51 am28 °FLight snow. Ice fog.7 mph96%30.17 "Hg1 mi
5:31 am28 °FLight snow. Ice fog.7 mph96%30.14 "Hg2 mi
5:11 am28 °FLight snow. Ice fog.8 mph96%30.14 "Hg2 mi
4:51 am28 °FLight snow. Ice fog.8 mph96%30.18 "Hg1 mi
3:51 am28 °FLight snow. Ice fog.8 mph96%30.19 "Hg2 mi
3:34 am28 °FLight snow. Ice fog.8 mph96%30.17 "Hg1 mi
2:52 am28 °FLight snow. Ice fog.8 mph96%30.19 "Hg1 mi
2:19 am28 °FLight snow. Ice fog.6 mph96%30.19 "Hg1 mi
1:51 am28 °FLight snow. Ice fog.5 mph96%30.23 "Hg1 mi
1:30 am28 °FLight snow. Ice fog.8 mph96%30.20 "Hg1 mi
1:11 am28 °FLight snow. Ice fog.8 mph96%30.20 "Hg1 mi
12:59 am28 °FLight snow. Ice fog.10 mph96%30.21 "Hg1 mi
12:23 am28 °FLight snow. Ice fog.10 mph96%30.23 "Hg1 mi
12:07 am28 °FLight snow. Ice fog.8 mph96%30.24 "Hg1 mi
11:35 pm
Wed, Nov 14
28 °FSnow. Ice fog.6 mph96%30.25 "Hg1 mi
11:15 pm28 °FLight snow. Ice fog.7 mph93%30.26 "Hg1 mi
10:59 pm28 °FLight snow. Ice fog.7 mph93%30.26 "Hg1 mi
10:37 pm28 °FLight snow. Ice fog.8 mph93%30.28 "Hg1 mi
10:15 pm30 °FLight snow. Overcast.5 mph79%30.29 "Hg3 mi
9:51 pm29 °FLight snow. Overcast.7 mph82%30.34 "Hg5 mi
9:24 pm29 °FLight snow. Overcast.7 mph79%30.31 "Hg4 mi
8:51 pm30 °FLight snow. Overcast.6 mph72%30.38 "Hg6 mi
8:20 pm31 °FSleet. Overcast.8 mph67%30.34 "Hg4 mi
7:51 pm31 °FMostly cloudy.8 mph64%30.37 "Hg10 mi
6:51 pm31 °FOvercast.8 mph64%30.42 "Hg10 mi
5:51 pm31 °FOvercast.8 mph64%30.43 "Hg10 mi
4:51 pm31 °FPartly cloudy.7 mph64%30.42 "Hg10 mi
3:51 pm32 °FPartly sunny.8 mph56%30.44 "Hg10 mi
2:51 pm32 °FPartly sunny.13 mph54%30.46 "Hg10 mi
1:51 pm32 °FPartly sunny.8 mph52%30.49 "Hg10 mi
12:51 pm31 °FBroken clouds.9 mph54%30.52 "Hg10 mi
11:51 am29 °FPartly sunny.8 mph58%30.56 "Hg10 mi
10:51 am27 °FPartly sunny.7 mph61%30.60 "Hg10 mi
9:51 am25 °FPartly sunny.8 mph72%30.60 "Hg10 mi
8:51 am22 °FPassing clouds.5 mph78%30.62 "Hg10 mi
Weather by CustomWeather, © 2018

See weather overview